INSAT-3DR

Last updated on Thu Jul 03 2025 00:02:22 GMT+0000 (Coordinated Universal Time)

1 41752U 16054A 25182.86746434 -.00000072 00000+0 00000+0 0 9993 2 41752 0.0479 93.1743 0010184 173.4176 39.8264 1.00271865 32288
UTC large
Height (km)
Speed (km/s)
/
Latitude / Longitude
Inclination (degrees)
Orbital Period (minutes)
Azimuth
Elevation
Range (km)
Doppler Factor

Next 0 passes for location: London (51.5072 / 0.1276)

Sorry there are no passes over London.